| time (UTC) | temp F | wind direction | speed knots | gust knots | rain 1hr in | rain 24hr in | rain mn in | humidity % | barometer mb |
| 20260505200522 | 90 | 229 | 1.7 | 6.1 | 0.00 | 0.00 | 0.00 | 54 | 1004.5 |
| 20260505200046 | 89 | 199 | 0.9 | 3.5 | 0.00 | 0.00 | 0.00 | 55 | 1004.8 |
| 20260505195522 | 90 | 311 | 0.9 | 4.3 | 0.00 | 0.00 | 0.00 | 56 | 1004.8 |
| 20260505195022 | 89 | 242 | 0.9 | 4.3 | 0.00 | 0.00 | 0.00 | 57 | 1004.8 |
| 20260505194544 | 88 | 183 | 0.9 | 3.5 | 0.00 | 0.00 | 0.00 | 57 | 1004.8 |
| 20260505194023 | 88 | 265 | 0.9 | 4.3 | 0.00 | 0.00 | 0.00 | 57 | 1004.8 |
| 20260505193523 | 89 | 158 | 1.7 | 4.3 | 0.00 | 0.00 | 0.00 | 56 | 1004.9 |
| 20260505193042 | 88 | 225 | 0.9 | 3.5 | 0.00 | 0.00 | 0.00 | 60 | 1004.7 |
| 20260505192523 | 88 | 360 | 0.9 | 4.3 | 0.00 | 0.00 | 0.00 | 59 | 1004.8 |
| 20260505192023 | 87 | 148 | 0.9 | 4.3 | 0.00 | 0.00 | 0.00 | 59 | 1004.9 |
| 20260505191538 | 87 | 261 | 1.7 | 5.2 | 0.00 | 0.00 | 0.00 | 58 | 1004.9 |
| 20260505191023 | 87 | 182 | 0.9 | 5.2 | 0.00 | 0.00 | 0.00 | 61 | 1004.8 |
| 20260505190523 | 87 | 196 | 1.7 | 3.5 | 0.00 | 0.00 | 0.00 | 61 | 1004.9 |
| 20260505190039 | 86 | 203 | 0.9 | 6.1 | 0.00 | 0.00 | 0.00 | 61 | 1004.9 |
| 20260505185522 | 85 | 28 | 1.7 | 6.1 | 0.00 | 0.00 | 0.00 | 62 | 1004.9 |
| 20260505185021 | 85 | 229 | 0.9 | 6.1 | 0.00 | 0.00 | 0.00 | 63 | 1005.0 |
| 20260505184538 | 84 | 216 | 1.7 | 6.1 | 0.00 | 0.00 | 0.00 | 63 | 1004.9 |
| 20260505184021 | 84 | 227 | 0.9 | 5.2 | 0.00 | 0.00 | 0.00 | 64 | 1005.1 |
| 20260505183521 | 84 | 236 | 0.9 | 5.2 | 0.00 | 0.00 | 0.00 | 64 | 1005.0 |
| 20260505183038 | 84 | 169 | 0.9 | 7.8 | 0.00 | 0.00 | 0.00 | 65 | 1005.0 |
| 20260505182522 | 84 | 170 | 1.7 | 7.8 | 0.00 | 0.00 | 0.00 | 64 | 1005.0 |
| 20260505182021 | 84 | 211 | 0.9 | 4.3 | 0.00 | 0.00 | 0.00 | 64 | 1005.0 |
| 20260505181537 | 84 | 195 | 0.9 | 6.1 | 0.00 | 0.00 | 0.00 | 64 | 1005.2 |
| 20260505181021 | 84 | 188 | 1.7 | 7.8 | 0.00 | 0.00 | 0.00 | 63 | 1005.2 |
| 20260505180522 | 84 | 360 | 1.7 | 7.8 | 0.00 | 0.00 | 0.00 | 64 | 1005.1 |
| 20260505175523 | 84 | 191 | 2.6 | 6.1 | 0.00 | 0.00 | 0.00 | 64 | 1005.0 |
| 20260505175025 | 84 | 165 | 0.9 | 5.2 | 0.00 | 0.00 | 0.00 | 63 | 1005.0 |
| 20260505174556 | 84 | 175 | 1.7 | 6.1 | 0.00 | 0.00 | 0.00 | 64 | 1005.0 |
| 20260505174022 | 83 | 209 | 1.7 | 6.1 | 0.00 | 0.00 | 0.00 | 64 | 1005.2 |
| 20260505173524 | 83 | 134 | 0.9 | 6.1 | 0.00 | 0.00 | 0.00 | 65 | 1005.0 |
| 20260505173044 | 83 | 159 | 2.6 | 6.1 | 0.00 | 0.00 | 0.00 | 65 | 1005.0 |
| 20260505172521 | 82 | 215 | 1.7 | 6.1 | 0.00 | 0.00 | 0.00 | 65 | 1005.2 |
| 20260505172021 | 82 | 263 | 0.9 | 6.1 | 0.00 | 0.00 | 0.00 | 66 | 1005.2 |
| 20260505171537 | 82 | 209 | 1.7 | 6.1 | 0.00 | 0.00 | 0.00 | 66 | 1005.4 |
| 20260505171021 | 81 | 148 | 0.9 | 7.0 | 0.00 | 0.00 | 0.00 | 66 | 1005.2 |
| 20260505170521 | 82 | 208 | 2.6 | 7.0 | 0.00 | 0.00 | 0.00 | 66 | 1005.5 |
| 20260505170037 | 82 | 200 | 1.7 | 7.8 | 0.00 | 0.00 | 0.00 | 66 | 1005.2 |
| 20260505165522 | 82 | 263 | 1.7 | 7.8 | 0.00 | 0.00 | 0.00 | 66 | 1005.4 |
| 20260505165024 | 82 | 145 | 1.7 | 4.3 | 0.00 | 0.00 | 0.00 | 67 | 1005.4 |
| 20260505164535 | 82 | 241 | 0.9 | 4.3 | 0.00 | 0.00 | 0.00 | 67 | 1005.3 |
| 20260505164021 | 81 | 123 | 0.9 | 6.1 | 0.00 | 0.00 | 0.00 | 67 | 1005.4 |
| 20260505163521 | 81 | 215 | 1.7 | 6.1 | 0.00 | 0.00 | 0.00 | 67 | 1005.3 |
| 20260505163039 | 80 | 242 | 1.7 | 6.1 | 0.00 | 0.00 | 0.00 | 68 | 1005.2 |
| 20260505162521 | 80 | 240 | 1.7 | 6.1 | 0.00 | 0.00 | 0.00 | 69 | 1005.2 |
| 20260505162021 | 80 | 304 | 1.7 | 6.1 | 0.00 | 0.00 | 0.00 | 69 | 1005.1 |
| 20260505161539 | 80 | 187 | 1.7 | 7.8 | 0.00 | 0.00 | 0.00 | 69 | 1005.0 |
| 20260505161024 | 80 | 196 | 2.6 | 7.8 | 0.00 | 0.00 | 0.00 | 68 | 1005.0 |
| 20260505160523 | 80 | 318 | 1.7 | 7.8 | 0.00 | 0.00 | 0.00 | 69 | 1004.9 |
| 20260505153036 | 78 | 135 | 2.6 | 7.8 | 0.00 | 0.00 | 0.00 | 71 | 1004.7 |
| 20260505152521 | 78 | 197 | 2.6 | 7.8 | 0.00 | 0.00 | 0.00 | 72 | 1004.7 |
| 20260505152020 | 77 | 114 | 2.6 | 8.7 | 0.00 | 0.00 | 0.00 | 73 | 1004.9 |
| 20260505151535 | 77 | 185 | 2.6 | 8.7 | 0.00 | 0.00 | 0.00 | 73 | 1005.0 |
| 20260505151021 | 77 | 219 | 3.5 | 8.7 | 0.00 | 0.00 | 0.00 | 73 | 1005.1 |
| 20260505150521 | 77 | 154 | 2.6 | 7.0 | 0.00 | 0.00 | 0.00 | 73 | 1004.9 |
| 20260505140521 | 74 | 212 | 1.7 | 6.1 | 0.00 | 0.00 | 0.00 | 78 | 1005.0 |
| 20260505125018 | 72 | 186 | 2.6 | 7.0 | 0.00 | 0.00 | 0.00 | 81 | 1004.6 |
| 20260505124538 | 72 | 196 | 0.9 | 6.1 | 0.00 | 0.00 | 0.00 | 81 | 1004.5 |
| 20260505124018 | 72 | 77 | 1.7 | 7.8 | 0.00 | 0.00 | 0.00 | 81 | 1004.6 |
| 20260505123518 | 72 | 173 | 1.7 | 7.8 | 0.00 | 0.00 | 0.00 | 81 | 1004.5 |
| 20260505123037 | 72 | 155 | 1.7 | 7.8 | 0.00 | 0.00 | 0.00 | 81 | 1004.3 |
| 20260505122518 | 72 | 186 | 2.6 | 7.8 | 0.00 | 0.00 | 0.00 | 81 | 1004.1 |
| 20260505122022 | 72 | 232 | 2.6 | 7.8 | 0.00 | 0.00 | 0.00 | 81 | 1004.1 |
| 20260505121540 | 72 | 166 | 2.6 | 6.1 | 0.00 | 0.00 | 0.00 | 80 | 1004.2 |
| 20260505121021 | 72 | 176 | 1.7 | 7.8 | 0.00 | 0.00 | 0.00 | 80 | 1004.1 |
| 20260505120522 | 72 | 151 | 2.6 | 9.6 | 0.00 | 0.00 | 0.00 | 80 | 1004.1 |
| 20260505120041 | 72 | 234 | 2.6 | 9.6 | 0.00 | 0.00 | 0.00 | 81 | 1004.1 |
| 20260505115521 | 72 | 206 | 1.7 | 10.4 | 0.00 | 0.00 | 0.00 | 80 | 1004.2 |
| 20260505115018 | 72 | 189 | 2.6 | 10.4 | 0.00 | 0.00 | 0.00 | 81 | 1004.1 |
| 20260505114537 | 71 | 155 | 2.6 | 7.0 | 0.00 | 0.00 | 0.00 | 81 | 1004.0 |
| 20260505114021 | 72 | 208 | 1.7 | 9.6 | 0.00 | 0.00 | 0.00 | 80 | 1003.9 |
| 20260505113524 | 72 | 161 | 2.6 | 9.6 | 0.00 | 0.00 | 0.00 | 80 | 1003.9 |
| 20260505113036 | 72 | 156 | 2.6 | 8.7 | 0.00 | 0.00 | 0.00 | 80 | 1003.9 |
| 20260505112518 | 72 | 207 | 1.7 | 8.7 | 0.00 | 0.00 | 0.00 | 80 | 1003.7 |
| 20260505112018 | 72 | 205 | 2.6 | 12.2 | 0.00 | 0.00 | 0.00 | 80 | 1003.8 |
| 20260505111539 | 71 | 230 | 3.5 | 12.2 | 0.00 | 0.00 | 0.00 | 81 | 1003.9 |
| 20260505111018 | 71 | 200 | 2.6 | 6.1 | 0.00 | 0.00 | 0.00 | 81 | 1003.8 |
| 20260505110519 | 71 | 205 | 2.6 | 6.1 | 0.00 | 0.00 | 0.00 | 82 | 1004.0 |
| 20260505102025 | 71 | 195 | 2.6 | 7.8 | 0.00 | 0.00 | 0.00 | 80 | 1003.9 |
| 20260505101535 | 71 | 143 | 1.7 | 7.0 | 0.00 | 0.00 | 0.00 | 81 | 1004.0 |
| 20260505101021 | 71 | 194 | 2.6 | 6.1 | 0.00 | 0.00 | 0.00 | 80 | 1003.9 |
| 20260505100521 | 71 | 163 | 1.7 | 6.1 | 0.00 | 0.00 | 0.00 | 80 | 1003.9 |
| 20260505100035 | 71 | 161 | 2.6 | 7.8 | 0.00 | 0.00 | 0.00 | 80 | 1003.9 |
| 20260505095520 | 71 | 201 | 2.6 | 9.6 | 0.00 | 0.00 | 0.00 | 81 | 1003.9 |
| 20260505095024 | 71 | 240 | 3.5 | 9.6 | 0.00 | 0.00 | 0.00 | 80 | 1004.1 |
| 20260505094537 | 71 | 194 | 2.6 | 8.7 | 0.00 | 0.00 | 0.00 | 81 | 1004.1 |
| 20260505094020 | 71 | 84 | 1.7 | 8.7 | 0.00 | 0.00 | 0.00 | 81 | 1004.3 |
| 20260505093522 | 71 | 188 | 3.5 | 9.6 | 0.00 | 0.00 | 0.00 | 81 | 1004.2 |
| 20260505093040 | 71 | 168 | 2.6 | 9.6 | 0.00 | 0.00 | 0.00 | 81 | 1004.2 |
| 20260505092521 | 71 | 151 | 3.5 | 8.7 | 0.00 | 0.00 | 0.00 | 81 | 1004.2 |
| 20260505092021 | 71 | 163 | 1.7 | 8.7 | 0.00 | 0.00 | 0.00 | 81 | 1004.4 |
| 20260505091548 | 71 | 202 | 0.9 | 8.7 | 0.00 | 0.00 | 0.00 | 81 | 1004.4 |
| 20260505091019 | 71 | 205 | 1.7 | 7.0 | 0.00 | 0.00 | 0.00 | 81 | 1004.5 |
| 20260505090521 | 71 | 178 | 1.7 | 7.0 | 0.00 | 0.00 | 0.00 | 82 | 1004.4 |
| 20260505090034 | 71 | 191 | 2.6 | 7.0 | 0.00 | 0.00 | 0.00 | 82 | 1004.4 |
| 20260505085521 | 71 | 169 | 2.6 | 10.4 | 0.00 | 0.00 | 0.00 | 81 | 1004.3 |
| 20260505085025 | 71 | 132 | 1.7 | 10.4 | 0.00 | 0.00 | 0.00 | 81 | 1004.3 |
| 20260505084535 | 71 | 312 | 1.7 | 9.6 | 0.00 | 0.00 | 0.00 | 81 | 1004.3 |
| 20260505084023 | 71 | 202 | 3.5 | 9.6 | 0.00 | 0.00 | 0.00 | 81 | 1004.3 |
| 20260505083520 | 71 | 172 | 2.6 | 7.0 | 0.00 | 0.00 | 0.00 | 81 | 1004.4 |
| 20260505083039 | 71 | 36 | 1.7 | 7.0 | 0.00 | 0.00 | 0.00 | 81 | 1004.4 |
| 20260505082520 | 71 | 205 | 2.6 | 7.8 | 0.00 | 0.00 | 0.00 | 80 | 1004.3 |
| 20260505082022 | 71 | 198 | 2.6 | 10.4 | 0.00 | 0.00 | 0.00 | 80 | 1004.3 |
| 20260505081539 | 71 | 195 | 3.5 | 10.4 | 0.00 | 0.00 | 0.00 | 80 | 1004.4 |
| 20260505081020 | 71 | 117 | 2.6 | 8.7 | 0.00 | 0.00 | 0.00 | 80 | 1004.5 |
| 20260505080517 | 71 | 164 | 1.7 | 8.7 | 0.00 | 0.00 | 0.00 | 80 | 1004.5 |
| 20260505080037 | 71 | 264 | 2.6 | 8.7 | 0.00 | 0.00 | 0.00 | 80 | 1004.5 |
| 20260505075520 | 71 | 0 | 2.6 | 7.8 | 0.00 | 0.00 | 0.00 | 79 | 1004.6 |
| 20260505075024 | 71 | 184 | 1.7 | 6.1 | 0.00 | 0.00 | 0.00 | 79 | 1004.6 |
| 20260505074537 | 71 | 215 | 1.7 | 6.1 | 0.00 | 0.00 | 0.00 | 79 | 1004.7 |
| 20260505074021 | 71 | 190 | 1.7 | 7.0 | 0.00 | 0.00 | 0.00 | 79 | 1004.8 |
| 20260505073521 | 72 | 188 | 2.6 | 7.0 | 0.00 | 0.00 | 0.00 | 78 | 1004.9 |
| 20260505073034 | 72 | 182 | 1.7 | 10.4 | 0.00 | 0.00 | 0.00 | 78 | 1005.0 |
| 20260505072524 | 72 | 197 | 1.7 | 10.4 | 0.00 | 0.00 | 0.00 | 78 | 1005.1 |
| 20260505072020 | 72 | 243 | 1.7 | 10.4 | 0.00 | 0.00 | 0.00 | 78 | 1005.1 |
| 20260505071551 | 72 | 161 | 2.6 | 7.0 | 0.00 | 0.00 | 0.00 | 78 | 1005.2 |
| 20260505071020 | 72 | 234 | 1.7 | 7.8 | 0.00 | 0.00 | 0.00 | 77 | 1005.2 |
| 20260505070523 | 72 | 170 | 2.6 | 7.8 | 0.00 | 0.00 | 0.00 | 77 | 1005.2 |
| 20260505070042 | 72 | 140 | 2.6 | 7.8 | 0.00 | 0.00 | 0.00 | 77 | 1005.3 |
| 20260505065522 | 72 | 172 | 1.7 | 6.1 | 0.00 | 0.00 | 0.00 | 77 | 1005.4 |
| 20260505065021 | 72 | 200 | 1.7 | 8.7 | 0.00 | 0.00 | 0.00 | 77 | 1005.5 |
| 20260505064536 | 72 | 197 | 1.7 | 8.7 | 0.00 | 0.00 | 0.00 | 76 | 1005.6 |
| 20260505064021 | 72 | 192 | 0.9 | 6.1 | 0.00 | 0.00 | 0.00 | 76 | 1005.7 |
| 20260505063521 | 72 | 178 | 1.7 | 6.1 | 0.00 | 0.00 | 0.00 | 76 | 1005.7 |
| 20260505063048 | 72 | 182 | 2.6 | 8.7 | 0.00 | 0.00 | 0.00 | 75 | 1005.7 |
| 20260505062526 | 72 | 194 | 2.6 | 8.7 | 0.00 | 0.00 | 0.00 | 75 | 1005.8 |
| 20260505062021 | 72 | 203 | 1.7 | 5.2 | 0.00 | 0.00 | 0.00 | 75 | 1005.7 |
| 20260505061604 | 72 | 201 | 0.9 | 7.0 | 0.00 | 0.00 | 0.00 | 75 | 1005.7 |
| 20260505061020 | 72 | 199 | 2.6 | 9.6 | 0.00 | 0.00 | 0.00 | 74 | 1005.8 |
| 20260505060524 | 73 | 172 | 1.7 | 10.4 | 0.00 | 0.00 | 0.00 | 74 | 1005.7 |
| 20260505060040 | 73 | 81 | 2.6 | 10.4 | 0.00 | 0.00 | 0.00 | 74 | 1005.7 |
| 20260505055525 | 73 | 211 | 1.7 | 8.7 | 0.00 | 0.00 | 0.00 | 73 | 1005.7 |
| 20260505055023 | 73 | 141 | 2.6 | 8.7 | 0.00 | 0.00 | 0.00 | 73 | 1005.8 |
| 20260505054540 | 73 | 120 | 2.6 | 7.8 | 0.00 | 0.00 | 0.00 | 73 | 1005.9 |
| 20260505054023 | 73 | 167 | 1.7 | 11.3 | 0.00 | 0.00 | 0.00 | 73 | 1005.9 |
| 20260505053521 | 73 | 109 | 2.6 | 11.3 | 0.00 | 0.00 | 0.00 | 73 | 1005.9 |
| 20260505053041 | 73 | 117 | 1.7 | 7.8 | 0.00 | 0.00 | 0.00 | 72 | 1006.0 |
| 20260505052523 | 73 | 162 | 1.7 | 13.9 | 0.00 | 0.00 | 0.00 | 72 | 1006.0 |
| 20260505052023 | 73 | 186 | 1.7 | 13.9 | 0.00 | 0.00 | 0.00 | 72 | 1006.1 |
| 20260505051601 | 73 | 142 | 2.6 | 7.0 | 0.00 | 0.00 | 0.00 | 71 | 1006.1 |
| 20260505051023 | 73 | 196 | 1.7 | 9.6 | 0.00 | 0.00 | 0.00 | 71 | 1006.1 |
| 20260505050523 | 73 | 157 | 2.6 | 9.6 | 0.00 | 0.00 | 0.00 | 71 | 1006.1 |
| 20260505041540 | 74 | 264 | 2.6 | 7.0 | 0.00 | 0.00 | 0.00 | 69 | 1006.2 |
| 20260505041022 | 74 | 183 | 2.6 | 9.6 | 0.00 | 0.00 | 0.00 | 69 | 1006.4 |
| 20260505040522 | 74 | 237 | 2.6 | 9.6 | 0.00 | 0.00 | 0.00 | 69 | 1006.4 |
| 20260505040036 | 74 | 184 | 1.7 | 7.8 | 0.00 | 0.00 | 0.00 | 69 | 1006.5 |
| 20260505035522 | 74 | 220 | 1.7 | 7.8 | 0.00 | 0.00 | 0.00 | 69 | 1006.4 |
| 20260505035021 | 74 | 123 | 1.7 | 6.1 | 0.00 | 0.00 | 0.00 | 69 | 1006.3 |
| 20260505034538 | 74 | 190 | 1.7 | 6.1 | 0.00 | 0.00 | 0.00 | 68 | 1006.3 |
| 20260505034023 | 74 | 194 | 1.7 | 7.0 | 0.00 | 0.00 | 0.00 | 68 | 1006.2 |
| 20260505033526 | 74 | 169 | 2.6 | 8.7 | 0.00 | 0.00 | 0.00 | 68 | 1006.3 |
| 20260505033038 | 74 | 181 | 1.7 | 8.7 | 0.00 | 0.00 | 0.00 | 68 | 1006.4 |
| 20260505032523 | 75 | 169 | 1.7 | 7.8 | 0.00 | 0.00 | 0.00 | 68 | 1006.5 |
| 20260505032022 | 75 | 175 | 2.6 | 12.2 | 0.00 | 0.00 | 0.00 | 67 | 1006.4 |
| 20260505031540 | 75 | 207 | 2.6 | 12.2 | 0.00 | 0.00 | 0.00 | 67 | 1006.4 |
| 20260505031022 | 75 | 205 | 2.6 | 8.7 | 0.00 | 0.00 | 0.00 | 67 | 1006.4 |
| 20260505030522 | 75 | 207 | 1.7 | 8.7 | 0.00 | 0.00 | 0.00 | 67 | 1006.4 |
| 20260505030038 | 75 | 161 | 2.6 | 7.0 | 0.00 | 0.00 | 0.00 | 67 | 1006.4 |
| 20260505025523 | 75 | 161 | 1.7 | 7.0 | 0.00 | 0.00 | 0.00 | 67 | 1006.5 |
| 20260505025017 | 75 | 189 | 1.7 | 11.3 | 0.00 | 0.00 | 0.00 | 67 | 1006.5 |
| 20260505024539 | 75 | 243 | 1.7 | 11.3 | 0.00 | 0.00 | 0.00 | 67 | 1006.4 |
| 20260505024018 | 75 | 187 | 0.9 | 7.8 | 0.00 | 0.00 | 0.00 | 66 | 1006.5 |
| 20260505023517 | 75 | 134 | 2.6 | 12.2 | 0.00 | 0.00 | 0.00 | 66 | 1006.4 |
| 20260505023036 | 75 | 169 | 1.7 | 12.2 | 0.00 | 0.00 | 0.00 | 65 | 1006.4 |
| 20260505022517 | 75 | 162 | 1.7 | 10.4 | 0.00 | 0.00 | 0.00 | 66 | 1006.4 |
| 20260505022017 | 75 | 215 | 2.6 | 10.4 | 0.00 | 0.00 | 0.00 | 65 | 1006.4 |
| 20260505021539 | 75 | 189 | 2.6 | 8.7 | 0.00 | 0.00 | 0.00 | 65 | 1006.3 |
| 20260505021017 | 75 | 196 | 2.6 | 8.7 | 0.00 | 0.00 | 0.00 | 65 | 1006.2 |
| 20260505020520 | 75 | 170 | 2.6 | 8.7 | 0.00 | 0.00 | 0.00 | 65 | 1006.1 |
| 20260505020038 | 76 | 144 | 1.7 | 10.4 | 0.00 | 0.00 | 0.00 | 65 | 1006.2 |
| 20260505015521 | 76 | 223 | 2.6 | 10.4 | 0.00 | 0.00 | 0.00 | 65 | 1006.3 |
| 20260505015018 | 76 | 205 | 1.7 | 10.4 | 0.00 | 0.00 | 0.00 | 65 | 1006.3 |
| 20260505014538 | 76 | 184 | 2.6 | 10.4 | 0.00 | 0.00 | 0.00 | 64 | 1006.3 |
| 20260505014021 | 76 | 186 | 2.6 | 9.6 | 0.00 | 0.00 | 0.00 | 64 | 1006.3 |
| 20260505013520 | 76 | 229 | 1.7 | 10.4 | 0.00 | 0.00 | 0.00 | 63 | 1006.4 |
| 20260505013039 | 76 | 191 | 3.5 | 10.4 | 0.00 | 0.00 | 0.00 | 63 | 1006.2 |
| 20260505012520 | 76 | 166 | 2.6 | 11.3 | 0.00 | 0.00 | 0.00 | 63 | 1006.3 |
| 20260505012017 | 76 | 234 | 3.5 | 11.3 | 0.00 | 0.00 | 0.00 | 63 | 1006.2 |
| 20260505011541 | 76 | 138 | 3.5 | 13.9 | 0.00 | 0.00 | 0.00 | 63 | 1006.2 |
| 20260505011017 | 77 | 273 | 3.5 | 13.9 | 0.00 | 0.00 | 0.00 | 63 | 1006.1 |
| 20260505010517 | 77 | 178 | 1.7 | 10.4 | 0.00 | 0.00 | 0.00 | 62 | 1006.2 |
| 20260505010037 | 77 | 184 | 3.5 | 10.4 | 0.00 | 0.00 | 0.00 | 62 | 1006.1 |
| 20260505005518 | 77 | 198 | 1.7 | 11.3 | 0.00 | 0.00 | 0.00 | 62 | 1006.1 |
| 20260505005017 | 77 | 192 | 2.6 | 11.3 | 0.00 | 0.00 | 0.00 | 61 | 1006.2 |
| 20260505004538 | 77 | 175 | 3.5 | 13.0 | 0.00 | 0.00 | 0.00 | 61 | 1006.2 |
| 20260505004020 | 77 | 157 | 2.6 | 13.0 | 0.00 | 0.00 | 0.00 | 61 | 1006.1 |
| 20260505003523 | 78 | 209 | 2.6 | 9.6 | 0.00 | 0.00 | 0.00 | 60 | 1006.1 |
| 20260505003038 | 78 | 176 | 2.6 | 10.4 | 0.00 | 0.00 | 0.00 | 59 | 1006.2 |
| 20260505002518 | 78 | 134 | 2.6 | 13.0 | 0.00 | 0.00 | 0.00 | 59 | 1006.2 |
| 20260505002017 | 78 | 158 | 4.3 | 13.0 | 0.00 | 0.00 | 0.00 | 59 | 1006.3 |
| 20260505001540 | 78 | 153 | 3.5 | 10.4 | 0.00 | 0.00 | 0.00 | 59 | 1006.3 |
| 20260505001017 | 79 | 224 | 2.6 | 11.3 | 0.00 | 0.00 | 0.00 | 58 | 1006.4 |
| 20260505000517 | 79 | 191 | 3.5 | 12.2 | 0.00 | 0.00 | 0.00 | 58 | 1006.2 |
| 20260505000044 | 79 | 202 | 2.6 | 12.2 | 0.00 | 0.00 | 0.00 | 58 | 1006.3 |
| 20260504235520 | 79 | 166 | 4.3 | 13.0 | 0.00 | 0.00 | 0.00 | 58 | 1006.4 |
| 20260504235024 | 79 | 240 | 5.2 | 13.0 | 0.00 | 0.00 | 0.00 | 58 | 1006.4 |
| 20260504234541 | 79 | 147 | 4.3 | 13.0 | 0.00 | 0.00 | 0.00 | 57 | 1006.4 |
| 20260504234023 | 79 | 130 | 4.3 | 16.5 | 0.00 | 0.00 | 0.00 | 57 | 1006.5 |
| 20260504233522 | 79 | 199 | 4.3 | 16.5 | 0.00 | 0.00 | 0.00 | 57 | 1006.5 |
| 20260504233033 | 79 | 192 | 3.5 | 13.9 | 0.00 | 0.00 | 0.00 | 57 | 1006.4 |
| 20260504232522 | 80 | 200 | 6.1 | 13.9 | 0.00 | 0.00 | 0.00 | 56 | 1006.4 |
| 20260504232021 | 80 | 141 | 3.5 | 12.2 | 0.00 | 0.00 | 0.00 | 56 | 1006.4 |
| 20260504231544 | 80 | 134 | 3.5 | 13.0 | 0.00 | 0.00 | 0.00 | 56 | 1006.6 |
| 20260504231021 | 80 | 178 | 3.5 | 13.9 | 0.00 | 0.00 | 0.00 | 55 | 1006.7 |
| 20260504230523 | 81 | 198 | 3.5 | 13.0 | 0.00 | 0.00 | 0.00 | 54 | 1006.8 |
| 20260504230050 | 82 | 267 | 4.3 | 17.4 | 0.00 | 0.00 | 0.00 | 53 | 1006.7 |
| 20260504225523 | 81 | 206 | 4.3 | 17.4 | 0.00 | 0.00 | 0.00 | 54 | 1006.7 |
| 20260504225025 | 81 | 171 | 4.3 | 12.2 | 0.00 | 0.00 | 0.00 | 54 | 1006.8 |
| 20260504224537 | 81 | 177 | 2.6 | 11.3 | 0.00 | 0.00 | 0.00 | 54 | 1007.0 |
| 20260504224023 | 81 | 261 | 4.3 | 12.2 | 0.00 | 0.00 | 0.00 | 54 | 1006.9 |
| 20260504223524 | 81 | 217 | 5.2 | 12.2 | 0.00 | 0.00 | 0.00 | 54 | 1007.0 |
| 20260504223038 | 81 | 184 | 3.5 | 10.4 | 0.00 | 0.00 | 0.00 | 53 | 1006.9 |
| 20260504222522 | 82 | 140 | 2.6 | 11.3 | 0.00 | 0.00 | 0.00 | 52 | 1006.9 |
| 20260504222021 | 83 | 201 | 2.6 | 11.3 | 0.00 | 0.00 | 0.00 | 52 | 1006.8 |
| 20260504221540 | 83 | 162 | 2.6 | 12.2 | 0.00 | 0.00 | 0.00 | 52 | 1006.9 |
| 20260504221022 | 82 | 160 | 4.3 | 12.2 | 0.00 | 0.00 | 0.00 | 51 | 1006.9 |
| 20260504220523 | 82 | 211 | 3.5 | 12.2 | 0.00 | 0.00 | 0.00 | 52 | 1007.1 |
| 20260504220041 | 82 | 221 | 3.5 | 12.2 | 0.00 | 0.00 | 0.00 | 52 | 1007.2 |
| 20260504215521 | 83 | 204 | 4.3 | 13.9 | 0.00 | 0.00 | 0.00 | 51 | 1007.3 |
| 20260504215023 | 83 | 271 | 2.6 | 13.9 | 0.00 | 0.00 | 0.00 | 51 | 1007.3 |
| 20260504214537 | 83 | 163 | 3.5 | 14.8 | 0.00 | 0.00 | 0.00 | 51 | 1007.5 |
| 20260504214025 | 83 | 172 | 3.5 | 15.6 | 0.00 | 0.00 | 0.00 | 51 | 1007.5 |
| 20260504213522 | 83 | 186 | 3.5 | 15.6 | 0.00 | 0.00 | 0.00 | 50 | 1007.6 |
| 20260504213038 | 83 | 159 | 2.6 | 13.0 | 0.00 | 0.00 | 0.00 | 51 | 1007.6 |
| 20260504212522 | 83 | 167 | 4.3 | 12.2 | 0.00 | 0.00 | 0.00 | 50 | 1007.6 |
| 20260504212022 | 84 | 233 | 2.6 | 8.7 | 0.00 | 0.00 | 0.00 | 50 | 1007.8 |
| 20260504211539 | 83 | 213 | 2.6 | 8.7 | 0.00 | 0.00 | 0.00 | 50 | 1007.9 |
| 20260504211022 | 84 | 150 | 3.5 | 10.4 | 0.00 | 0.00 | 0.00 | 50 | 1008.0 |
| 20260504210524 | 84 | 182 | 3.5 | 13.0 | 0.00 | 0.00 | 0.00 | 49 | 1008.0 |
| 20260504210043 | 83 | 176 | 4.3 | 13.0 | 0.00 | 0.00 | 0.00 | 49 | 1008.2 |
| 20260504205522 | 84 | 183 | 2.6 | 9.6 | 0.00 | 0.00 | 0.00 | 49 | 1008.1 |
| 20260504205021 | 84 | 139 | 3.5 | 9.6 | 0.00 | 0.00 | 0.00 | 49 | 1008.5 |
| 20260504204547 | 83 | 216 | 2.6 | 9.6 | 0.00 | 0.00 | 0.00 | 49 | 1008.5 |
| 20260504204027 | 84 | 172 | 3.5 | 14.8 | 0.00 | 0.00 | 0.00 | 48 | 1008.5 |
| 20260504203522 | 84 | 120 | 3.5 | 14.8 | 0.00 | 0.00 | 0.00 | 48 | 1008.7 |
| 20260504203053 | 84 | 140 | 4.3 | 13.0 | 0.00 | 0.00 | 0.00 | 47 | 1008.7 |
| 20260504202522 | 84 | 222 | 3.5 | 10.4 | 0.00 | 0.00 | 0.00 | 47 | 1008.8 |
| 20260504202022 | 85 | 199 | 1.7 | 11.3 | 0.00 | 0.00 | 0.00 | 48 | 1009.0 |
| 20260504201540 | 84 | 196 | 2.6 | 12.2 | 0.00 | 0.00 | 0.00 | 48 | 1009.1 |
| 20260504201025 | 84 | 140 | 3.5 | 14.8 | 0.00 | 0.00 | 0.00 | 47 | 1009.2 |